Theta_e
298 298 298 298 298 299 299 300 300 301 301 301 301 301 302 302 302 296 292 292 288 282 283 286 287 283 283 282 278 282 282 280 280 276 274 273 277 280 279 281 279 278 277 276 278 275 272 288 287 282 285 288 288 288
297 297 298 298 299 299 299 300 300 301 301 301 302 302 302 302 302 302 293 296 295 289 288 294 293 291 289 289 285 284 284 283 284 277 278 281 277 279 279 273 283 277 282 279 280 278 286 289 287 289 289 289 288 289
297 297 298 298 298 299 299 300 300 301 301 302 302 302 303 303 303 301 297 297 295 290 289 290 288 294 296 294 294 284 286 289 286 287 284 283 278 278 273 275 279 282 285 282 281 284 286 289 290 290 291 291 290 290
296 298 298 298 298 299 300 300 300 301 301 302 302 303 303 303 303 303 296 297 295 290 282 282 293 290 295 295 294 294 291 291 290 288 284 281 278 282 276 279 279 281 283 281 281 285 286 287 289 290 290 291 291 292
297 297 299 298 299 299 299 300 300 300 301 302 302 303 303 303 303 301 298 296 297 290 283 283 291 293 294 293 292 293 292 290 288 284 282 279 280 282 281 281 279 283 281 279 278 285 285 286 289 291 289 290 291 291
296 296 296 297 298 298 299 299 299 300 301 301 302 302 303 302 302 297 288 299 300 296 286 281 288 290 292 293 291 290 290 290 289 286 284 285 288 284 279 277 283 286 287 287 284 288 288 289 291 292 290 291 292 293
295 295 295 295 296 296 297 298 298 299 300 301 300 301 302 301 297 289 289 293 300 298 285 283 281 287 291 291 289 288 289 289 288 286 284 285 285 286 282 278 285 287 289 289 290 289 286 289 287 291 292 292 294 294
294 294 295 295 295 295 296 297 297 298 299 301 300 300 301 301 300 295 299 300 299 291 287 282 278 279 290 281 281 288 284 288 287 286 286 284 286 285 279 285 287 288 289 289 289 290 289 290 291 290 291 291 292 291
292 293 294 294 294 294 295 296 297 297 298 300 300 300 298 296 288 289 299 301 298 292 283 281 275 274 288 280 282 285 288 284 288 284 285 286 284 280 284 286 287 289 289 288 290 290 290 289 289 290 291 290 289 288
292 292 293 294 293 294 294 295 296 297 298 299 295 293 286 291 300 298 293 286 286 285 285 283 285 277 283 278 280 285 285 284 280 283 287 283 282 288 289 289 289 289 288 287 284 286 288 289 289 290 290 291 291 288
292 292 292 292 293 293 294 295 296 297 298 295 290 288 295 300 293 289 283 283 283 282 284 284 284 279 287 279 282 286 281 283 278 281 281 280 281 284 287 286 287 286 287 286 287 289 291 291 290 290 289 290 289 285
291 291 292 292 293 293 294 294 295 292 295 294 293 297 296 291 286 283 281 280 282 279 278 280 282 284 285 290 285 284 282 281 277 286 281 280 282 285 285 284 283 284 284 284 284 283 285 287 289 285 285 285 283 281
293 292 292 292 292 293 294 294 295 295 296 296 292 288 287 285 280 279 276 280 277 281 287 287 282 287 287 288 284 283 281 276 282 282 280 280 283 284 283 283 282 283 282 282 281 281 281 281 282 281 280 281 280 278
291 293 292 292 292 293 293 294 295 295 291 287 285 280 281 279 281 279 279 284 286 288 288 288 286 284 285 283 283 280 280 284 276 276 276 281 283 283 283 283 282 281 281 281 280 279 279 278 278 279 279 279 278 277
292 293 292 292 292 293 293 294 295 291 289 286 285 279 280 281 280 284 286 287 284 286 288 286 285 286 284 281 283 281 278 277 280 277 281 283 284 283 282 282 281 280 280 279 280 279 278 278 277 277 278 278 278 277
292 292 291 293 293 293 294 294 293 292 290 286 287 283 281 279 281 278 282 279 286 285 289 287 284 282 281 281 281 278 279 277 280 282 283 284 283 282 281 282 281 281 280 279 279 279 278 278 277 277 277 277 276 275
291 287 293 294 294 293 295 291 292 290 287 287 281 283 280 279 279 280 283 283 288 288 285 285 282 281 282 280 280 282 278 279 283 284 284 284 283 282 282 282 281 281 280 279 279 278 278 278 278 277 276 277 276 275
287 289 293 292 291 292 291 290 290 289 285 284 280 281 283 282 281 280 284 288 291 288 287 283 288 282 277 279 281 279 279 284 285 284 283 284 285 284 284 282 282 281 280 279 278 278 278 277 277 276 277 277 276 275
286 288 291 291 290 286 288 287 289 284 284 283 283 283 284 283 285 287 287 292 292 291 285 282 282 280 280 282 282 278 279 285 283 283 284 285 284 283 283 282 282 280 279 279 278 277 278 278 277 277 277 276 275 274
289 290 291 292 291 285 286 288 291 284 281 284 286 283 284 284 286 281 285 288 286 282 282 281 281 281 281 281 281 281 280 283 284 282 281 282 283 282 281 280 278 279 279 278 278 277 277 277 278 278 277 276 274 273
287 288 290 289 286 286 286 288 287 286 285 283 286 285 283 285 283 282 284 286 282 280 280 281 279 280 282 281 283 286 285 284 285 282 282 282 283 283 282 279 280 278 277 276 276 275 275 275 277 277 275 274 274 273
286 292 285 287 283 285 283 288 286 287 285 285 284 285 281 278 278 281 285 281 282 282 282 281 281 281 282 284 286 288 287 288 287 285 284 283 282 282 282 280 279 275 276 275 277 276 276 277 277 276 274 274 274 274
288 288 285 285 281 282 283 287 284 284 282 282 284 282 284 281 282 286 279 283 282 283 284 285 286 286 284 286 288 285 287 287 285 285 285 284 284 283 283 283 284 279 276 276 279 277 275 273 274 274 274 273 273 272
289 282 280 280 281 274 281 278 284 284 284 282 281 281 281 281 283 280 279 280 281 284 285 286 286 284 284 285 282 283 287 287 286 285 286 285 284 283 284 284 284 284 281 280 279 277 275 271 272 273 272 272 271 271
279 274 276 272 278 275 272 276 280 281 276 280 280 278 280 282 277 277 277 279 279 279 280 284 284 285 284 284 286 287 288 288 285 284 285 286 284 284 284 284 284 284 284 281 279 278 277 275 270 270 271 271 271 269
272 270 273 272 270 275 277 273 275 275 278 277 280 281 281 278 273 273 279 279 277 284 282 282 283 284 284 285 286 286 288 288 286 285 284 286 286 285 284 283 282 282 284 284 281 279 277 277 274 270 269 269 270 270
267 266 279 281 280 281 277 279 282 279 275 275 278 275 275 271 271 277 280 281 278 278 280 281 283 283 283 283 285 287 288 288 286 286 284 286 287 287 287 284 283 283 282 283 282 280 278 276 275 273 271 270 271 271
273 277 269 274 275 280 272 275 276 276 278 282 279 273 274 274 275 280 280 280 280 281 281 281 281 281 280 279 279 280 285 285 285 286 286 285 285 286 286 285 285 285 285 284 283 281 280 278 276 274 272 271 269 271
273 278 277 268 272 276 275 275 277 280 282 281 277 274 277 280 282 281 281 279 281 283 280 275 273 278 274 274 280 282 283 287 285 283 283 283 284 284 284 285 285 285 284 281 281 280 278 279 278 277 275 273 273 273
269 279 272 267 268 271 274 279 278 278 282 280 280 279 279 280 282 279 278 280 281 282 282 276 281 280 272 270 276 277 283 284 285 285 285 284 285 285 285 285 285 285 284 282 281 280 281 281 280 278 276 274 273 271
278 276 272 273 270 273 277 282 279 279 281 281 274 272 274 276 280 280 277 280 282 284 284 283 283 283 281 280 273 270 278 283 284 284 283 284 286 286 286 286 286 285 284 283 282 282 281 280 279 277 275 273 271 270
270 270 269 266 275 279 273 272 273 272 270 270 270 269 270 270 270 273 275 280 283 282 282 282 280 280 281 282 283 284 284 284 284 284 286 285 285 286 286 286 286 285 284 283 283 282 281 279 278 276 274 270 270 269
269 269 269 271 276 276 274 272 272 272 269 269 270 270 270 270 270 271 274 279 281 281 280 280 281 281 281 281 280 281 282 282 283 284 285 285 286 285 286 285 285 285 284 283 282 282 280 279 278 276 274 270 269 269
Wind_Speed
7 7 7 7 5 6 6 7 7 7 8 10 10 11 12 12 13 7 4 6 6 4 8 8 7 11 5 3 6 4 6 4 2 3 3 6 5 5 6 11 10 12 9 11 9 15 21 3 1 8 6 9 5 5
7 8 8 7 8 8 7 7 8 9 10 12 13 14 15 16 16 14 4 5 6 5 5 2 11 18 18 17 6 4 8 4 3 0 2 2 4 3 4 7 5 7 7 6 7 6 15 8 6 6 7 16 4 4
7 9 11 9 7 7 8 8 10 10 12 13 14 15 16 17 18 16 6 4 4 5 8 9 15 15 14 19 14 10 9 9 9 5 4 5 9 3 4 7 11 8 13 12 7 15 24 19 13 7 10 16 6 5
10 10 8 8 8 9 10 10 8 8 10 12 15 14 13 14 14 15 5 4 4 2 5 5 3 8 12 18 20 20 23 10 5 2 5 5 6 5 6 8 10 12 2 13 16 19 18 18 19 19 19 17 5 9
5 7 11 10 7 5 3 3 4 7 8 10 9 10 9 11 12 6 4 5 8 5 3 4 4 14 12 11 20 21 19 16 9 6 6 7 3 6 8 8 17 20 27 13 18 25 18 21 20 14 10 14 13 8
4 1 2 3 4 3 2 2 4 7 7 7 6 4 5 4 1 2 3 6 11 7 3 4 4 7 7 13 16 14 13 10 8 3 5 6 16 6 6 15 31 28 20 22 24 27 24 22 22 22 18 19 11 8
5 6 6 2 0 1 3 5 6 7 7 5 4 4 5 4 3 4 4 3 5 6 1 5 5 6 4 8 3 3 6 5 5 4 7 11 13 8 8 19 37 26 21 21 19 21 24 24 20 19 16 14 9 7
9 9 8 6 4 3 5 5 7 8 7 6 6 7 7 7 7 5 5 6 5 3 1 4 6 5 3 2 2 4 4 5 6 5 3 6 4 6 12 24 23 25 24 23 24 25 25 25 20 20 15 10 9 4
10 11 10 8 6 4 6 8 8 8 7 6 5 8 2 4 2 4 4 9 2 3 3 3 2 5 1 2 1 1 2 5 3 5 6 5 5 9 17 19 20 22 20 24 25 23 21 22 22 19 13 12 7 7
12 11 14 9 9 10 9 9 8 7 8 5 1 3 3 3 11 8 3 2 1 2 2 5 3 5 3 2 2 2 2 3 3 5 1 5 8 12 12 17 17 20 20 24 23 21 19 15 17 19 15 8 9 11
10 9 9 9 12 11 9 8 8 7 3 3 3 3 0 11 3 1 2 3 3 3 4 5 6 4 2 3 3 3 3 3 4 3 4 3 2 10 17 19 17 17 15 13 12 11 11 17 13 10 6 7 13 19
13 12 12 13 13 12 10 9 7 2 1 3 4 3 3 2 2 3 4 3 5 6 3 4 5 5 2 1 2 2 3 2 6 1 4 2 6 17 16 17 17 16 15 16 17 17 11 11 9 16 14 17 22 23
11 14 12 13 13 13 11 10 9 8 5 2 3 4 3 3 6 5 6 5 4 4 4 3 2 1 0 0 2 2 4 7 3 3 3 2 11 13 13 13 13 14 15 17 20 21 25 25 25 24 23 21 23 23
8 10 13 13 13 12 11 10 8 2 3 3 4 6 5 5 7 6 5 4 4 3 4 3 1 2 2 2 1 3 5 3 4 2 4 5 11 11 11 10 10 13 14 16 17 19 22 23 22 22 21 20 22 21
8 10 13 14 15 14 12 9 8 2 2 4 3 6 7 5 3 4 3 2 2 4 3 2 1 1 2 3 2 3 3 4 2 3 3 4 8 8 8 9 10 11 12 13 14 16 18 20 21 20 18 18 20 19
7 13 8 18 18 15 13 8 3 2 3 4 5 2 3 3 3 2 1 3 3 4 3 1 2 3 5 3 3 5 3 3 1 1 2 3 5 5 6 8 8 9 11 11 12 14 15 17 18 19 18 17 16 16
8 3 7 11 16 16 12 4 5 6 5 5 5 4 4 2 5 4 5 4 5 5 3 3 5 5 1 2 3 1 3 2 1 1 1 2 3 4 6 6 6 7 9 11 13 13 15 14 16 16 19 14 16 15
2 3 12 10 5 7 2 4 4 5 8 5 3 4 3 3 4 2 4 4 4 3 3 4 2 3 4 3 2 3 1 2 2 2 3 3 4 5 5 5 6 6 8 9 10 11 13 13 14 11 15 14 14 13
4 4 7 8 4 1 5 6 4 4 6 4 3 2 3 3 3 3 3 4 4 3 3 1 2 3 3 2 3 2 3 4 4 2 2 3 4 5 5 4 5 7 7 7 7 7 7 9 9 9 9 9 9 8
15 15 15 14 7 3 5 6 5 5 4 5 3 3 4 4 4 3 3 3 3 3 1 3 4 4 4 4 4 4 3 5 7 4 3 2 3 4 4 3 2 6 7 8 7 7 8 7 6 7 7 8 9 8
10 7 10 5 3 4 4 3 4 5 4 4 3 5 3 2 3 3 4 3 3 3 3 4 3 2 2 2 3 4 6 6 5 4 5 5 4 4 3 3 4 3 4 4 5 4 4 5 6 7 7 7 7 7
3 6 3 3 3 7 6 5 4 3 4 3 4 4 3 3 2 4 3 2 4 5 4 4 3 3 3 4 3 5 7 7 5 4 6 6 4 4 5 3 5 3 4 3 4 5 5 5 6 7 8 8 8 8
6 5 3 5 5 6 6 3 3 3 3 3 4 4 2 2 4 3 2 3 4 4 4 4 5 5 6 5 5 4 5 7 5 5 5 3 3 3 3 3 5 5 4 2 5 6 5 6 8 8 8 8 8 8
7 3 4 5 7 6 2 2 4 3 3 4 5 5 4 4 3 2 3 3 4 3 3 6 6 5 4 5 3 3 4 4 5 4 6 5 5 5 4 3 4 5 6 6 6 6 6 5 7 7 7 8 8 8
5 7 5 7 3 3 3 2 4 4 5 4 4 2 3 3 3 3 4 4 2 2 3 4 4 5 5 3 3 4 5 7 7 6 5 4 4 4 3 3 4 6 8 8 7 8 7 7 5 7 8 8 9 8
6 6 9 6 4 6 6 5 6 6 4 4 5 3 3 4 3 5 4 3 3 5 4 6 6 5 3 4 4 4 6 5 5 4 5 7 7 8 7 7 6 5 7 8 10 11 10 10 10 9 7 9 10 11
5 5 4 4 3 2 2 1 3 4 4 5 4 2 4 4 6 4 1 0 2 2 3 2 4 4 4 2 1 1 4 8 8 6 5 6 6 6 7 8 8 5 6 8 9 12 13 12 13 12 9 7 10 11
5 3 5 4 2 2 4 2 4 6 5 3 5 5 10 9 6 2 2 1 3 4 4 3 3 3 3 2 1 2 4 5 5 6 6 4 1 4 5 4 5 14 10 10 10 9 11 11 11 12 12 11 7 8
4 3 3 1 0 1 4 4 4 2 1 4 6 4 4 1 1 2 1 1 1 4 4 3 2 2 3 3 4 3 2 7 9 8 9 5 3 3 3 5 6 7 7 8 11 11 11 11 11 11 11 10 9 9
5 3 2 1 5 4 4 2 3 1 2 3 4 3 2 1 1 1 2 2 3 2 2 4 4 3 2 3 2 2 1 1 1 3 5 5 5 4 6 7 8 7 8 9 9 8 10 9 9 8 9 8 8 8
3 3 2 3 4 3 3 2 1 2 3 3 3 4 3 3 1 2 2 1 3 3 3 3 3 3 4 3 3 3 3 2 2 3 2 2 4 6 7 7 7 8 9 10 10 11 10 9 9 10 11 11 12 11
2 5 5 3 3 1 2 2 2 2 0 3 1 3 2 3 2 2 1 0 4 3 4 4 4 2 2 2 3 2 3 1 3 2 3 3 3 5 6 7 8 8 9 10 11 11 13 12 10 11 11 12 13 12
2 2 2 4 3 5 2 4 1 1 2 2 3 4 4 5 5 4 2 1 2 5 5 5 4 3 4 3 3 2 3 1 2 0 3 4 5 7 6 6 7 9 11 10 10 12 14 15 12 12 12 12 12 11
Wind_Direction
205 216 204 204 218 212 203 203 211 225 237 242 243 242 238 230 221 199 233 171 162 212 246 241 233 236 255 204 250 262 338 284 296 212 202 221 228 226 258 263 270 264 251 242 241 243 257 135 232 192 227 282 300 287
221 233 242 239 220 212 215 220 230 238 246 249 248 244 241 235 228 213 216 183 192 223 260 273 248 239 234 239 248 219 232 220 242 80 278 290 270 244 265 281 227 249 213 237 249 254 295 293 302 229 267 285 289 247
234 239 259 229 208 221 231 239 247 253 259 255 252 249 244 237 230 213 220 154 187 239 254 236 252 240 224 227 224 242 242 225 228 194 240 236 247 172 228 240 249 252 234 241 251 245 251 264 267 248 263 271 253 245
243 246 236 228 228 240 244 244 250 261 266 262 261 252 242 242 231 216 214 172 205 233 257 284 198 242 236 228 224 225 247 242 210 195 232 233 243 193 242 248 248 245 289 241 255 253 265 272 260 256 264 275 244 290
221 252 240 233 225 200 199 246 278 280 280 284 293 220 216 223 231 222 194 196 194 209 278 278 265 252 235 214 225 226 230 236 239 225 227 245 213 231 252 263 253 244 245 241 248 255 250 264 271 264 250 267 270 240
200 240 91 114 150 148 186 250 294 298 293 313 266 222 219 223 77 99 293 218 207 188 267 281 288 257 211 227 224 225 220 224 224 215 239 235 235 215 238 253 258 258 245 240 249 257 254 252 261 263 256 269 255 219
220 238 215 216 28 340 342 335 320 311 304 299 336 333 246 207 139 166 213 232 178 152 240 276 280 273 237 222 190 171 173 209 209 226 229 251 245 238 254 260 270 273 271 263 251 252 256 249 247 254 250 243 219 193
238 235 241 232 247 271 309 321 318 310 308 302 288 298 283 266 239 235 211 149 96 81 113 262 272 337 175 193 245 180 179 185 211 227 218 237 243 209 246 254 267 273 282 279 264 249 245 256 254 257 257 248 209 166
241 241 239 229 241 264 289 300 299 303 301 284 290 293 282 195 173 231 176 172 140 173 229 232 212 262 3 256 201 343 213 232 209 225 227 207 222 231 253 295 305 294 280 276 267 264 248 238 246 242 222 234 196 123
241 243 239 229 249 247 260 286 292 301 293 276 258 206 217 218 124 124 64 67 62 231 230 248 176 268 65 6 288 281 247 260 263 233 209 226 258 293 316 293 297 301 295 281 271 255 233 239 228 230 216 158 135 122
238 238 247 241 244 243 257 279 291 309 280 168 203 194 163 148 99 117 169 199 177 234 216 237 209 239 278 168 219 219 271 256 261 261 203 250 250 330 328 320 326 321 326 346 347 288 235 219 215 218 211 137 114 126
247 239 241 241 241 244 257 270 282 276 225 332 301 123 140 168 161 213 192 202 212 234 220 182 216 196 262 353 207 204 254 261 256 328 243 276 341 333 335 340 343 346 358 15 21 25 25 182 130 95 99 107 115 113
248 234 233 243 241 244 252 258 262 266 300 209 206 168 175 169 214 216 203 203 215 215 187 168 216 237 82 323 267 255 251 239 329 232 284 27 327 337 346 352 356 11 26 36 42 48 58 70 79 88 92 93 96 96
270 258 237 237 240 242 245 251 265 265 177 223 181 169 202 184 222 203 199 181 195 155 155 167 171 174 200 217 235 259 254 306 293 288 12 339 339 345 350 359 6 18 31 43 51 59 65 68 71 76 82 89 94 95
291 280 252 244 239 235 233 233 247 202 226 236 210 202 210 227 241 215 201 136 217 147 142 124 168 148 206 240 226 276 293 251 300 355 320 343 345 352 360 8 24 30 37 47 51 62 68 75 77 76 78 87 94 99
282 298 249 236 226 221 216 211 205 225 247 226 228 234 238 100 262 315 227 244 163 133 107 115 210 207 219 212 204 226 257 266 8 296 332 360 357 5 12 22 40 48 52 56 58 66 75 78 85 91 88 87 89 92
301 241 17 21 184 196 182 159 191 208 226 226 242 204 169 151 189 202 167 213 155 138 201 180 212 218 124 229 228 194 221 189 187 143 67 44 47 29 26 42 46 58 71 79 82 80 85 92 95 90 88 87 91 91
211 285 322 342 33 134 141 220 235 222 225 234 184 232 189 175 162 222 208 177 142 210 149 210 230 220 206 202 209 236 159 100 100 121 152 116 91 63 76 73 66 73 78 77 83 92 96 97 94 93 96 99 98 96
250 255 270 289 307 259 184 198 208 258 231 215 214 199 164 193 214 183 174 173 189 186 125 83 212 220 213 199 183 212 151 158 163 155 125 103 106 102 96 94 105 103 98 93 90 92 93 95 105 112 110 109 105 104
290 281 267 258 224 230 241 199 188 211 241 223 146 158 170 189 182 169 176 173 133 106 60 216 215 209 174 193 176 193 149 135 142 128 121 115 112 114 137 131 108 109 102 102 100 101 106 98 86 96 104 107 112 114
305 220 223 132 145 233 289 261 218 214 191 197 181 140 195 112 141 159 180 163 79 197 223 218 199 206 182 180 157 132 136 141 161 157 166 151 171 149 145 113 105 91 111 115 119 103 83 106 112 111 104 100 103 108
254 228 107 212 209 190 246 234 213 245 153 197 126 138 155 154 182 200 158 125 204 223 191 168 176 160 152 158 147 147 160 159 158 132 122 130 146 154 165 144 132 122 128 137 127 123 117 112 111 111 113 115 111 118
284 190 222 181 207 210 251 201 197 260 172 197 105 124 176 167 208 112 186 214 232 218 175 153 160 152 147 147 135 126 144 148 152 154 143 142 130 143 157 157 145 146 125 71 118 117 112 113 111 115 116 116 121 121
219 223 223 206 193 219 230 204 185 162 271 149 158 172 169 188 137 123 212 222 232 151 144 149 130 107 87 111 142 170 156 147 146 147 153 154 159 172 171 169 141 145 142 141 132 126 124 116 125 124 126 125 128 130
185 242 166 242 254 138 164 187 189 180 181 177 155 156 177 122 126 185 220 255 178 181 163 150 145 148 147 164 173 182 164 155 159 164 179 152 139 140 152 155 135 145 147 138 146 143 141 135 118 132 137 140 140 137
218 244 180 205 239 161 192 167 191 185 143 154 196 162 114 109 121 234 221 205 201 163 170 171 161 164 184 183 164 171 182 161 147 158 186 169 170 173 175 175 164 172 179 163 154 157 158 158 153 150 145 146 144 144
242 265 223 218 223 188 162 190 159 126 165 171 153 129 110 148 221 243 202 329 137 178 143 146 118 124 140 164 115 125 149 163 168 187 156 155 157 168 168 178 188 176 155 164 165 165 165 166 165 162 161 158 163 161
229 254 187 243 207 200 168 161 150 180 188 170 109 160 169 186 214 170 180 247 134 118 100 83 76 109 122 125 108 86 100 102 90 91 86 57 91 169 172 165 144 154 162 168 166 167 167 164 165 162 164 167 163 162
245 249 120 226 249 257 200 179 205 213 159 145 148 160 163 66 103 133 181 180 175 102 94 90 6 72 44 37 44 24 99 142 137 154 162 167 167 217 168 145 149 154 153 152 160 160 164 160 163 164 162 164 161 157
253 193 137 158 148 223 243 177 168 224 72 106 108 95 84 72 54 64 94 98 106 152 157 157 159 152 174 134 177 323 334 134 125 156 193 187 195 163 159 154 154 155 152 150 149 149 147 141 133 127 132 141 148 149
200 151 157 172 209 239 197 139 65 77 75 77 43 106 137 150 82 30 87 76 115 124 136 120 107 188 170 160 155 150 233 265 140 137 128 107 136 155 160 161 156 153 156 154 152 156 158 158 155 156 159 161 165 163
164 187 154 142 184 208 41 96 143 112 82 87 133 91 59 70 153 261 293 103 154 157 139 135 128 99 62 67 61 68 70 70 170 161 159 155 160 157 156 153 153 156 159 161 155 156 163 163 165 168 169 168 170 169
161 158 167 119 152 171 252 93 114 171 49 151 188 158 171 143 182 219 291 353 183 147 135 115 103 106 109 102 81 61 49 17 14 25 201 181 169 159 154 155 157 161 161 165 159 160 166 169 170 172 172 173 177 173